Regional Weather Roundup
Issued by NWS

Home | Current Version | Previous Version | Graphics & Text | Print | Product List | Glossary On
Versions: 1 2 3 4 5 6 7 8 9 10 11 12 13 14 15 16 17 18 19 20 21 22 23 24 25 26 27 28 29 30 31 32 33 34 35 36 37 38 39 40 41 42 43 44 45 46 47 48 49 50
000
ASUS43 KOAX 300210
RWRNE

WEATHER ROUNDUP FOR NEBRASKA
NATIONAL WEATHER SERVICE OMAHA NE
900 PM CDT FRI JUL 29 2016

NOTES: SATELLITE DATA IS BEING USED TO AUGMENT CLOUD COVER ABOVE
       12000 FEET.
       "FAIR" INDICATES FEW OR NO CLOUDS BELOW 12,000 FEET WITH NO
       SIGNIFICANT WEATHER AND/OR OBSTRUCTIONS TO VISIBILITY.

  * THESE STATIONS DO NOT REPORT WEATHER SUCH AS RAIN...SNOW OR FOG.

NEZ001>004-019>022-054>056-300300-
NEBRASKA PANHANDLE

CITY           SKY/WX    TMP DP  RH WIND       PRES   REMARKS
SCOTTSBLUFF    CLOUDY    63  32  31 SE10      30.06F
ALLIANCE       CLOUDY    67  64  90 SE7       30.05S
CHADRON        CLOUDY    70  63  78 SE8       30.04S
KIMBALL        CLOUDY    71  60  67 E15       30.15R
SIDNEY         LGT RAIN  70  60  70 SE8       30.15R
$$

NEZ057>060-069>072-079>082-300300-
SOUTHWEST NEBRASKA

CITY           SKY/WX    TMP DP  RH WIND       PRES   REMARKS
NORTH PLATTE   CLOUDY    71  66  84 SE7       30.04F
IMPERIAL       CLOUDY    75  64  68 S6        30.05F
LEXINGTON      PTCLDY    72  66  81 E6        30.04S
MCCOOK         CLOUDY    76  62  62 E9        30.02F
OGALLALA       CLOUDY    75  63  64 E9        30.05F
$$

NEZ005>010-023>029-035>040-094-300300-
NORTH CENTRAL NEBRASKA

CITY           SKY/WX    TMP DP  RH WIND       PRES   REMARKS
VALENTINE      CLOUDY    73  60  63 SE10      30.02F
AINSWORTH      CLOUDY    71  63  77 SE6       30.04S
BROKEN BOW     PTCLDY    69  64  84 E3        30.05S
O`NEILL        PTCLDY    72  60  66 CALM      30.04F
ORD            CLOUDY    71  62  73 E5        30.03R
THEDFORD       CLOUDY    73  63  72 SE8       30.04F
$$

NEZ041-046>049-061>064-073>077-083>087-300300-
SOUTH CENTRAL NEBRASKA

CITY           SKY/WX    TMP DP  RH WIND       PRES   REMARKS
GRAND ISLAND   CLOUDY    72  63  73 E6        30.04R
AURORA         CLOUDY    70  66  87 E3        30.04R
HASTINGS       CLOUDY    72  64  76 E6        30.04R
HEBRON         CLEAR     74  64  70 CALM      30.02R
HOLDREGE       CLOUDY    71  65  82 E5        30.04S
KEARNEY *      PTCLDY    72  66  83 E3        30.05S
YORK           CLEAR     70  63  78 CALM      30.03R
$$

NEZ011>018-030>034-042>045-300300-
NORTHEAST NEBRASKA

CITY           SKY/WX    TMP DP  RH WIND       PRES   REMARKS
NORFOLK        CLEAR     68  58  70 SE3       30.03R
ALBION         CLEAR     68  60  75 NE5       30.04S
BLAIR          CLEAR     71  63  77 NE5       30.02S
FREMONT        CLEAR     73  62  66 NE7       30.02S
TEKAMAH        CLEAR     70  63  78 E6        30.01S
WAYNE          CLEAR     67  63  85 CALM      30.03R
$$

NEZ050>053-065>068-078-088>093-300300-
SOUTHEAST NEBRASKA

CITY           SKY/WX    TMP DP  RH WIND       PRES   REMARKS
LINCOLN        CLEAR     73  62  68 NE6       30.02R
OMAHA EPPLEY   PTCLDY    74  62  66 NE5       30.01R
BEATRICE       CLEAR     72  61  67 NE3       30.01R
FALLS CITY     CLEAR     74  63  68 CALM      29.98S
NEBRASKA CITY  CLEAR     70  64  82 NE3       30.01R
PLATTSMOUTH    CLEAR     71  64  80 E3        30.01S
$$

NEZ044-045-051>053-067-300300-
OMAHA AREA

CITY           SKY/WX    TMP DP  RH WIND       PRES   REMARKS
OMAHA EPPLEY   PTCLDY    74  62  66 NE5       30.01R
BLAIR          CLEAR     71  63  77 NE5       30.02S
FREMONT        CLEAR     73  62  66 NE7       30.02S
MILLARD        CLEAR     75  63  65 NE3       30.01R
OFFUTT AFB     CLEAR     71  63  75 NE6       30.01R
PLATTSMOUTH    CLEAR     71  64  80 E3        30.01S
WAHOO          FAIR      71  63  76 NE5       30.01S
$$




USA.gov is the U.S. government's official web portal to all federal, state and local government web resources and services.